TimeCDT,TemperatureF,Dew PointF,Humidity,Sea Level PressureIn,VisibilityMPH,Wind Direction,Wind SpeedMPH,Gust SpeedMPH,PrecipitationIn,Events,Conditions,WindDirDegrees,DateUTC
12:15 AM,54.7,53.6,96,30.15,10.0,Calm,Calm,-,N/A,,Scattered Clouds,0,2013-10-31 05:15:00
12:35 AM,55.4,54.5,97,30.14,10.0,Calm,Calm,-,N/A,,Overcast,0,2013-10-31 05:35:00
12:55 AM,55.4,54.5,97,30.14,10.0,Calm,Calm,-,N/A,,Scattered Clouds,0,2013-10-31 05:55:00
1:15 AM,55.6,54.5,96,30.13,10.0,Calm,Calm,-,N/A,,Clear,0,2013-10-31 06:15:00
1:35 AM,56.5,54.7,94,30.12,10.0,East,4.6,-,N/A,,Mostly Cloudy,100,2013-10-31 06:35:00
1:55 AM,65.3,55.0,69,30.11,10.0,SSW,6.9,-,N/A,,Scattered Clouds,210,2013-10-31 06:55:00
2:15 AM,66.4,54.5,66,30.11,10.0,SSW,6.9,16.1,N/A,,Clear,200,2013-10-31 07:15:00
2:35 AM,66.4,54.5,66,30.10,10.0,South,8.1,21.9,N/A,,Clear,190,2013-10-31 07:35:00
2:55 AM,66.4,54.7,66,30.09,10.0,South,6.9,16.1,N/A,,Clear,190,2013-10-31 07:55:00
3:15 AM,66.2,54.7,66,30.09,10.0,South,6.9,-,N/A,,Clear,190,2013-10-31 08:15:00
3:35 AM,66.2,54.7,66,30.09,10.0,South,5.8,-,N/A,,Clear,190,2013-10-31 08:35:00
3:55 AM,66.2,54.7,66,30.07,10.0,South,8.1,-,N/A,,Clear,190,2013-10-31 08:55:00
4:15 AM,66.2,54.5,66,30.07,10.0,SSW,11.5,16.1,N/A,,Clear,200,2013-10-31 09:15:00
4:35 AM,65.7,54.7,68,30.08,10.0,South,5.8,-,N/A,,Clear,180,2013-10-31 09:35:00
4:55 AM,65.3,54.7,68,30.08,10.0,South,8.1,-,N/A,,Scattered Clouds,180,2013-10-31 09:55:00
5:15 AM,64.9,54.7,69,30.09,10.0,South,6.9,-,N/A,,Scattered Clouds,180,2013-10-31 10:15:00
5:35 AM,64.6,54.7,70,30.09,10.0,South,5.8,-,N/A,,Clear,170,2013-10-31 10:35:00
5:55 AM,65.8,54.1,66,30.09,10.0,SSW,4.6,-,N/A,,Scattered Clouds,200,2013-10-31 10:55:00
6:15 AM,65.5,54.1,67,30.08,10.0,South,4.6,-,N/A,,Clear,170,2013-10-31 11:15:00
6:35 AM,65.3,54.1,67,30.08,10.0,SSW,6.9,-,N/A,,Scattered Clouds,200,2013-10-31 11:35:00
6:55 AM,65.7,54.0,66,30.07,10.0,SSW,4.6,-,N/A,,Overcast,200,2013-10-31 11:55:00
7:15 AM,65.3,54.0,67,30.06,10.0,SSW,6.9,-,N/A,,Overcast,210,2013-10-31 12:15:00
7:35 AM,64.6,54.5,70,30.05,10.0,South,9.2,-,N/A,,Scattered Clouds,190,2013-10-31 12:35:00
7:55 AM,64.0,54.5,71,30.05,10.0,SSW,5.8,-,N/A,,Clear,200,2013-10-31 12:55:00
8:15 AM,63.9,54.5,72,30.04,10.0,Calm,Calm,-,N/A,,Clear,0,2013-10-31 13:15:00
8:35 AM,63.5,54.7,73,30.03,10.0,Calm,Calm,-,N/A,,Clear,0,2013-10-31 13:35:00
8:55 AM,62.6,55.0,76,30.01,10.0,South,5.8,-,N/A,,Scattered Clouds,190,2013-10-31 13:55:00
9:15 AM,63.9,54.7,72,30.01,10.0,South,6.9,-,N/A,,Overcast,180,2013-10-31 14:15:00
9:35 AM,64.4,54.7,71,30.01,10.0,South,8.1,-,N/A,,Overcast,180,2013-10-31 14:35:00
9:55 AM,64.9,54.7,69,30.01,10.0,South,5.8,-,N/A,,Mostly Cloudy,190,2013-10-31 14:55:00
10:15 AM,64.9,54.5,69,30.00,10.0,SSE,5.8,-,N/A,,Mostly Cloudy,150,2013-10-31 15:15:00
10:35 AM,64.4,55.4,73,30.01,10.0,SSW,4.6,-,N/A,Rain,Light Rain,200,2013-10-31 15:35:00
10:55 AM,63.7,55.2,74,30.01,10.0,SSW,5.8,-,N/A,Rain,Light Rain,200,2013-10-31 15:55:00
11:15 AM,63.0,56.3,79,30.01,10.0,South,4.6,-,0.01,Rain,Light Rain,190,2013-10-31 16:15:00
11:35 AM,62.6,56.5,80,29.99,7.0,South,6.9,-,0.01,Rain,Light Rain,170,2013-10-31 16:35:00
11:55 AM,62.6,56.3,80,29.98,10.0,South,6.9,-,0.01,,Overcast,170,2013-10-31 16:55:00
12:15 PM,62.2,56.7,82,29.97,10.0,South,4.6,-,N/A,Rain,Rain,170,2013-10-31 17:15:00
12:35 PM,63.0,56.3,79,29.96,10.0,South,3.5,-,N/A,,Mostly Cloudy,180,2013-10-31 17:35:00
12:55 PM,63.5,56.1,77,29.95,10.0,SSE,5.8,-,N/A,,Scattered Clouds,160,2013-10-31 17:55:00
1:15 PM,63.7,56.5,77,29.92,10.0,South,5.8,-,N/A,,Mostly Cloudy,170,2013-10-31 18:15:00
1:35 PM,63.9,56.8,78,29.91,10.0,SSE,3.5,-,N/A,,Mostly Cloudy,150,2013-10-31 18:35:00
1:55 PM,64.0,57.0,78,29.90,10.0,SSE,4.6,-,N/A,,Overcast,160,2013-10-31 18:55:00
2:15 PM,64.8,57.2,76,29.88,10.0,South,5.8,-,N/A,,Overcast,180,2013-10-31 19:15:00
2:35 PM,65.5,57.2,75,29.88,10.0,South,4.6,-,N/A,,Overcast,180,2013-10-31 19:35:00
2:55 PM,66.9,57.2,71,29.87,10.0,South,8.1,-,N/A,,Overcast,180,2013-10-31 19:55:00
3:15 PM,68.4,57.2,67,29.86,10.0,SSW,9.2,-,N/A,,Overcast,210,2013-10-31 20:15:00
3:35 PM,69.1,57.6,67,29.83,10.0,SSW,10.4,19.6,N/A,,Overcast,200,2013-10-31 20:35:00
3:55 PM,70.0,57.9,65,29.82,10.0,SSW,15.0,23.0,N/A,,Overcast,200,2013-10-31 20:55:00
4:15 PM,70.2,57.7,65,29.82,10.0,South,12.7,26.5,N/A,,Overcast,190,2013-10-31 21:15:00
4:35 PM,70.3,57.6,64,29.82,10.0,South,16.1,24.2,N/A,,Overcast,190,2013-10-31 21:35:00
4:55 PM,70.3,57.6,64,29.80,10.0,South,12.7,19.6,N/A,,Overcast,190,2013-10-31 21:55:00
5:15 PM,70.3,57.4,63,29.81,10.0,South,11.5,27.6,N/A,,Overcast,190,2013-10-31 22:15:00
5:35 PM,70.3,57.2,63,29.80,10.0,South,12.7,25.3,N/A,,Overcast,190,2013-10-31 22:35:00
5:55 PM,70.3,57.2,63,29.80,10.0,SSW,15.0,24.2,N/A,,Overcast,200,2013-10-31 22:55:00
6:15 PM,70.7,57.2,62,29.79,10.0,South,9.2,25.3,N/A,,Overcast,180,2013-10-31 23:15:00
6:35 PM,70.7,57.2,62,29.79,10.0,SSW,13.8,24.2,N/A,,Overcast,200,2013-10-31 23:35:00
6:55 PM,70.7,57.2,62,29.78,10.0,South,13.8,24.2,N/A,,Overcast,190,2013-10-31 23:55:00
7:15 PM,70.3,58.3,66,29.77,10.0,SSW,19.6,29.9,N/A,Rain,Rain,200,2013-11-01 00:15:00
7:35 PM,69.8,58.5,67,29.77,10.0,South,16.1,28.8,N/A,,Overcast,180,2013-11-01 00:35:00
7:55 PM,69.8,58.5,67,29.73,10.0,South,9.2,24.2,N/A,Rain,Light Rain,190,2013-11-01 00:55:00
8:15 PM,70.2,58.1,65,29.71,10.0,South,17.3,33.4,N/A,,Light Drizzle,190,2013-11-01 01:15:00
8:35 PM,70.0,58.3,66,29.67,10.0,South,11.5,26.5,N/A,,Mostly Cloudy,190,2013-11-01 01:35:00
8:55 PM,69.6,58.1,67,29.64,10.0,South,20.7,36.8,N/A,,Overcast,180,2013-11-01 01:55:00
9:15 PM,69.8,58.1,66,29.68,10.0,South,15.0,26.5,N/A,,Overcast,190,2013-11-01 02:15:00
9:35 PM,70.0,58.3,66,29.68,10.0,South,12.7,25.3,N/A,,Overcast,180,2013-11-01 02:35:00
9:55 PM,70.2,58.6,67,29.70,10.0,SSW,6.9,25.3,N/A,,Overcast,210,2013-11-01 02:55:00
10:15 PM,69.8,59.2,69,29.69,10.0,South,8.1,-,0.01,Rain,Rain,170,2013-11-01 03:15:00
10:35 PM,69.1,59.9,72,29.70,10.0,SSW,5.8,16.1,0.01,,Overcast,210,2013-11-01 03:35:00
10:55 PM,69.1,60.3,73,29.69,10.0,SW,15.0,24.2,0.01,,Drizzle,220,2013-11-01 03:55:00
11:15 PM,66.6,61.7,84,29.69,4.0,SSW,15.0,24.2,0.03,Rain,Rain,200,2013-11-01 04:15:00
11:35 PM,66.2,62.1,86,29.70,4.0,SSW,11.5,26.5,0.08,Rain,Rain,210,2013-11-01 04:35:00
11:55 PM,66.2,62.1,86,29.69,10.0,SSW,12.7,26.5,0.09,Rain,Light Rain,200,2013-11-01 04:55:00